Regional Weather Roundup
Issued by NWS

Home | Current Version | Previous Version | Graphics & Text | Print | Product List | Glossary On
Versions: 1 2 3 4 5 6 7 8 9 10 11 12 13 14 15 16 17 18 19 20 21 22 23 24 25 26 27 28 29 30 31 32 33 34 35 36 37 38 39 40 41 42 43 44 45 46 47 48 49 50
000
ASUS43 KLOT 241609
RWRIL

ILLINOIS REGIONAL WEATHER ROUNDUP
NATIONAL WEATHER SERVICE CHICAGO/ROMEOVILLE IL
1100 AM CDT THU MAY 24 2018

NOTE: "FAIR" INDICATES FEW OR NO CLOUDS BELOW 12,000 FEET WITH NO
SIGNIFICANT WEATHER AND/OR OBSTRUCTIONS TO VISIBILITY.

* THESE STATIONS ARE NOT UNDER NWS QUALITY CONTROL. THEY ALSO MAY NOT
  REPORT WEATHER SUCH AS PRECIPITATION OR FOG.

ILZ001-002-007-009-015-016-024-241700-
NORTHWEST ILLINOIS

CITY           SKY/WX    TMP DP  RH WIND       PRES   REMARKS
MOLINE         FAIR      84  62  47 SW8       30.12F HX  85
STERLING*      FAIR      81  62  52 VRB7      30.16S HX  82
SAVANNA*       FAIR      78  61  56 W7        30.14F
$$

ILZ003-004-008-010-011-017-018-241700-
NORTH CENTRAL ILLINOIS

CITY           SKY/WX    TMP DP  RH WIND       PRES   REMARKS
ROCKFORD       FAIR      80  59  48 S13       30.17F HX  81
FREEPORT*      FAIR      79  59  50 S12       30.17S HX  80
ROCHELLE*      FAIR      79  59  50 S12G17    30.17F HX  80
DE KALB*       FAIR      78  62  58 S13       30.19S
PERU*          FAIR      83  61  47 S10G16    30.17S HX  83
$$

ILZ005-006-012>014-019>023-241700-
NORTHEAST ILLINOIS

CITY           SKY/WX    TMP DP  RH WIND       PRES   REMARKS
CHICAGO-OHARE  FAIR      80  55  42 S10       30.17F HX  80
CHICAGO-MIDWAY FAIR      80  55  42 S8        30.18F HX  80
AURORA         FAIR      79  59  50 S13       30.18F HX  80
LANSING*       FAIR      78  60  53 S7        30.19F HX  80
JOLIET*        FAIR      80  59  48 S6        30.18F HX  81
WAUKEGAN       FAIR      76  59  55 SE7       30.17F
DUPAGE AIRPORT FAIR      79  60  52 S9        30.17F HX  80
KANKAKEE*      FAIR      80  53  39 S5        30.20S HX  80
WHEELING         N/A    N/A N/A N/A MISG      30.19F
MORRIS*        FAIR      80  57  44 S8        30.17S HX  81
ROMEOVILLE*    FAIR      79  57  47 S7        30.18F HX  80
NORTHERLY ISL    N/A     68  58  70 SE2         N/A
$$

LMZ740>746-241700-
SOUTHERN LAKE MICHIGAN

STATION/POSITION SKY/WX   TEMP    WIND        PRES    VSBY  WAVE
                          AIR SEA DIR/SP/G                  HT/PER
                          (F)     (DEG/KT/KT) (MB)    (MI)  (FT/S)
SOUTHERN BUOY              49 40  140/  6/  6 1023.1F         0
WILMETTE HARBOR            56 52  130/  6/  8   N/A           0
HARRISON CRIB              71     140/ 12/ 13   N/A
BURNHAM HARBOR             67      80/  3/  5   N/A
CALUMET HARBOR             77     180/  7/ 11 1021.7F
BURNS HARBOR               77     170/  6/ 18 1022.7F
MICHIGAN CITY              75     170/ 10/ 12   N/A
MICHIGAN CITY 6N           68 60  190/  6/  6   N/A           0
ST. JOSEPH                 69 57  350/  2/  2 1022.7          0
$$

ILZ025>027-034>036-040-047-049-050-058-095>099-241700-
WEST-CENTRAL ILLINOIS

CITY           SKY/WX    TMP DP  RH WIND       PRES   REMARKS
QUINCY         SUNNY     83  61  47 SW10G20   30.14S HX  83
GALESBURG*     FAIR      82  62  50 SW7       30.16S HX  83
MACOMB*        MOSUNNY   83  60  45 S10       30.17S HX  83
JACKSONVILLE*  SUNNY     81  61  51 S7        30.15S HX  82
PITTSFIELD*    MOSUNNY   83  64  53 SE6       30.16S HX  84
$$

ILZ028>032-037-038-041>044-048-051>054-059>061-241700-
CENTRAL ILLINOIS

CITY           SKY/WX    TMP DP  RH WIND       PRES   REMARKS
PONTIAC        FAIR      82  56  40 SW7       30.18F HX  82
BLOOMINGTON    FAIR      82  57  42 S8        30.19S HX  82
DECATUR        FAIR      81  58  45 VRB7      30.17F HX  81
PEORIA         FAIR      81  64  56 S8        30.16S HX  82
LACON*         FAIR      80  61  52 S7        30.15F HX  81
LINCOLN*       FAIR      83  60  44 CALM      30.16F HX  83
SPRINGFIELD    FAIR      84  63  49 S8        30.16F HX  85
TAYLORVILLE    FAIR      81  62  53 SE7       30.16F HX  82
$$

ILZ033-039-045-046-055>057-062-063-241700-
EAST-CENTRAL ILLINOIS

CITY           SKY/WX    TMP DP  RH WIND       PRES   REMARKS
CHAMPAIGN      FAIR      80  54  40 S3        30.18F HX  80
DANVILLE*      FAIR      78  58  49 SE9       30.17F
RANTOUL*       FAIR      82  56  41 SE5       30.19S HX  82
MATTOON        FAIR      78  63  59 SE8       30.17F HX  80
PARIS*         FAIR      79  59  50 E5        30.20S HX  80
$$

ILZ079-100>102-241700-
SOUTHWEST ILLINOIS

CITY           SKY/WX    TMP DP  RH WIND       PRES   REMARKS
ALTON          SUNNY     82  68  61 SE6       30.16S HX  85
BELLEVILLE     SUNNY     81  67  61 SE6       30.14S HX  84
CAHOKIA*       SUNNY     83  65  54 SE7       30.14F HX  85
SPARTA*        SUNNY     81  69  67 SE3       30.16F HX  84
$$

ILZ064>066-069>071-074>076-080>082-084>086-088>090-092>094-241700-
SOUTH-CENTRAL ILLINOIS

CITY           SKY/WX    TMP DP  RH WIND       PRES   REMARKS
CARBONDALE     FAIR      81  66  60 SE3       30.14F HX  83
CAIRO*         FAIR      82  67  62 E3        30.14S HX  84
EFFINGHAM*     FAIR      81  60  49 SE6       30.19F HX  81
MARION         MOSUNNY   79  64  61 SE9       30.16F HX  81
MT. VERNON     FAIR      82  62  50 VRB6      30.16F HX  83
CENTRALIA*     SUNNY     82  64  54 SE3       30.15F HX  83
SALEM*         FAIR      82  61  48 E7        30.17S HX  83
METROPOLIS*    FAIR      84  65  52 CALM      30.14F HX  86
$$

ILZ067-068-072-073-078-083-087-091-241700-
SOUTHEAST ILLINOIS

CITY           SKY/WX    TMP DP  RH WIND       PRES   REMARKS
LAWRENCEVILLE    N/A    N/A N/A N/A MISG      30.18S
FLORA*         FAIR      83  60  46 SE5       30.17F HX  83
FAIRFIELD*     FAIR      81  59  47 E5        30.16S HX  81
HARRISBURG*    FAIR      81  65  59 E6        30.16F HX  82
ROBINSON*      FAIR      78  61  54 E6        30.19S HX  80
CARMI*         FAIR      82  61  48 NE6       30.15F HX  83
$$

ABBREVIATIONS USED IN REMARKS
   TC - TEMPERATURE IN CELSIUS
  WCI - WIND CHILL INDEX
   HX - HEAT INDEX
  VSB - VISIBILITY
$$





USA.gov is the U.S. government's official web portal to all federal, state and local government web resources and services.